Location: Borovka
(49.7741°N, 14.5280°E)
Time: 15:18:04
(UTC+00:00)

YAOGAN 1 - Pass Details

Date: 17 November 2025
Orbit: 605 x 607 km, 97.8° (Epoch: 12 December)

Event Time Altitude Azimuth Distance (km) Brightness Sun altitude
Rises 18:04:57 0° 189° (S) 2,854 6.1 -27.0°
Reaches altitude 10° 18:07:17 10° 199° (SSW) 1,955 5.3 -27.4°
Maximum altitude 18:11:08 33° 264° (W) 1,031 4.2 -28.0°
Drops below altitude 10° 18:15:01 10° 329° (NNW) 1,969 5.5 -28.6°
Sets 18:17:23 0° 339° (NNW) 2,878 6.3 -29.0°
